Kremmling, CO

12:32 AM MDT on March 28, 2017 (GMT -0600)
Kremmling

Weather History for K20V - May, 2013

Change the Weather History Date:

Monday, May 27, 2013

  Actual Average Record
Temperature  
Mean Temperature 50 °F -  
Max Temperature 71 °F - 78 °F (2006)
Min Temperature 30 °F - 28 °F (2005)
Degree Days  
Heating Degree Days 14    
Month to date heating degree days  
Cooling Degree Days 0    
Month to date cooling degree days  
Moisture  
Dew Point 23 °F    
Average Humidity 39    
Maximum Humidity 87    
Minimum Humidity 8    
Precipitation  
Precipitation 0.00 in - 0.03 in (2011)
Sea Level Pressure  
Sea Level Pressure 30.02 in    
Wind  
Wind Speed 5 mph (WNW)    
Max Wind Speed 22 mph    
Max Gust Speed 36 mph    
Visibility 10 miles    
Events      
T = Trace of Precipitation, MM = Missing Value Source: NWS Daily Summary

Daily Weather History Graph

Daily Weather History Graph

Search for Another Location

Airport or City:

Trip Planner

Search our weather history database for the weather conditions in past years. The results will help you decide how hot, cold, wet, or windy it might be!

Date:

Astronomy

May. 27, 2013 Rise Set
Actual Time 5:40 AM MDT 8:24 PM MDT
Civil Twilight 5:09 AM MDT 8:56 PM MDT
Nautical Twilight 4:29 AM MDT 9:36 PM MDT
Astronomical Twilight 3:44 AM MDT 10:22 PM MDT
Moon 11:06 PM MDT (5/27) 8:21 AM MDT (5/27)
Length of Visible Light 15h 47m
Length of Day
14h 44m
Waning Gibbous, 90% of the Moon is Illuminated
May 27
Waning Gibbous
May 31
Last Quarter
Jun 8
New
Jun 16
First Quarter
Jun 23
Full

Hourly Weather History & Observations

Time (MDT) Temp. Windchill Dew Point Humidity Pressure Visibility Wind Dir Wind Speed Gust Speed Precip Events Conditions
12:16 AM 46.4 °F 41.9 °F 26.6 °F 46% 30.08 in 10.0 mi ESE 9.2 mph - N/A   Clear
12:36 AM 44.6 °F 40.2 °F 28.4 °F 53% 30.08 in 10.0 mi East 8.1 mph 17.3 mph N/A   Clear
12:56 AM 44.6 °F 40.7 °F 26.6 °F 49% 30.08 in 10.0 mi East 6.9 mph - N/A   Clear
1:16 AM 42.8 °F - 24.8 °F 49% 30.08 in 10.0 mi Calm Calm - N/A   Clear
1:36 AM 41.0 °F - 24.8 °F 53% 30.07 in 10.0 mi Calm Calm - N/A   Clear
1:55 AM 41.0 °F 35.8 °F 26.6 °F 57% 30.06 in 10.0 mi East 8.1 mph - N/A   Clear
2:16 AM 41.0 °F 39.0 °F 23.0 °F 49% 30.06 in 10.0 mi ENE 3.5 mph - N/A   Clear
2:36 AM 39.2 °F - 24.8 °F 56% 30.06 in 10.0 mi Calm Calm - N/A   Clear
2:56 AM 37.4 °F 34.9 °F 28.4 °F 70% 30.06 in 10.0 mi ESE 3.5 mph - N/A   Clear
3:16 AM 39.2 °F 35.9 °F 26.6 °F 61% 30.06 in 10.0 mi ESE 4.6 mph - N/A   Clear
3:36 AM 35.6 °F 32.8 °F 26.6 °F 70% 30.06 in 10.0 mi East 3.5 mph - N/A   Clear
3:55 AM 35.6 °F - 26.6 °F 70% 30.06 in 10.0 mi Calm Calm - N/A   Clear
4:16 AM 35.6 °F - 26.6 °F 70% 30.07 in 10.0 mi Calm Calm - N/A   Clear
4:36 AM 35.6 °F - 26.6 °F 70% 30.07 in 10.0 mi Calm Calm - N/A   Clear
4:56 AM 33.8 °F - 26.6 °F 75% 30.08 in 10.0 mi Calm Calm - N/A   Clear
5:15 AM 33.8 °F - 28.4 °F 81% 30.08 in 10.0 mi Calm Calm - N/A   Clear
5:36 AM 32.0 °F - 26.6 °F 80% 30.09 in 10.0 mi Calm Calm - N/A   Clear
5:55 AM 30.2 °F - 23.0 °F 75% 30.09 in 10.0 mi Calm Calm - N/A   Clear
6:16 AM 32.0 °F - 28.4 °F 87% 30.09 in 10.0 mi Calm Calm - N/A   Clear
6:35 AM 33.8 °F - 28.4 °F 81% 30.10 in 10.0 mi Calm Calm - N/A   Clear
6:56 AM 35.6 °F - 26.6 °F 70% 30.10 in 10.0 mi Calm Calm - N/A   Clear
7:16 AM 37.4 °F - 26.6 °F 65% 30.10 in 10.0 mi Calm Calm - N/A   Clear
7:36 AM 39.2 °F - 28.4 °F 65% 30.11 in 10.0 mi Calm Calm - N/A   Clear
7:56 AM 41.0 °F - 28.4 °F 61% 30.10 in 10.0 mi Calm Calm - N/A   Clear
8:16 AM 44.6 °F - 28.4 °F 53% 30.09 in 10.0 mi Calm Calm - N/A   Clear
8:36 AM 50.0 °F - 24.8 °F 37% 30.09 in 10.0 mi Calm Calm - N/A   Clear
8:56 AM 50.0 °F - 26.6 °F 40% 30.08 in 10.0 mi Calm Calm - N/A   Clear
9:15 AM 53.6 °F - 24.8 °F 33% 30.07 in 10.0 mi Calm Calm - N/A   Clear
9:36 AM 55.4 °F - 26.6 °F 33% 30.06 in 10.0 mi Calm Calm - N/A   Clear
9:56 AM 59.0 °F - 23.0 °F 25% 30.05 in 10.0 mi Calm Calm - N/A   Clear
10:16 AM 60.8 °F - 23.0 °F 23% 30.04 in 10.0 mi Calm Calm - N/A   Clear
10:36 AM 60.8 °F - 19.4 °F 20% 30.04 in 10.0 mi Calm Calm - N/A   Clear
10:56 AM 64.4 °F - 14.0 °F 14% 30.02 in 10.0 mi Calm Calm - N/A   Clear
11:16 AM 68.0 °F - 17.6 °F 15% 30.02 in 10.0 mi SSW 3.5 mph - N/A   Scattered Clouds
11:35 AM 69.8 °F - 17.6 °F 14% 30.02 in 10.0 mi West 8.1 mph - N/A   Mostly Cloudy
11:56 AM 69.8 °F - 12.2 °F 11% 30.01 in 10.0 mi SW 17.3 mph 26.5 mph N/A   Scattered Clouds
12:16 PM 71.6 °F - 12.2 °F 10% 30.01 in 10.0 mi SW 11.5 mph 19.6 mph N/A   Scattered Clouds
12:36 PM 71.6 °F - 8.6 °F 9% 30.00 in 10.0 mi SW 15.0 mph 21.9 mph N/A   Scattered Clouds
12:56 PM 69.8 °F - 10.4 °F 10% 30.00 in 10.0 mi SSW 12.7 mph 19.6 mph N/A   Scattered Clouds
1:16 PM 71.6 °F - 10.4 °F 9% 30.00 in 10.0 mi WSW 18.4 mph 25.3 mph N/A   Scattered Clouds
1:36 PM 71.6 °F - 12.2 °F 10% 29.99 in 10.0 mi WSW 11.5 mph 21.9 mph N/A   Scattered Clouds
1:55 PM 71.6 °F - 8.6 °F 9% 29.99 in 10.0 mi WSW 11.5 mph 18.4 mph N/A   Scattered Clouds
2:16 PM 69.8 °F - 6.8 °F 9% 29.98 in 10.0 mi WSW 11.5 mph 35.7 mph N/A   Scattered Clouds
2:36 PM 69.8 °F - 5.0 °F 8% 29.98 in 10.0 mi WSW 21.9 mph 29.9 mph N/A   Mostly Cloudy
2:55 PM 71.6 °F - 8.6 °F 9% 29.97 in 10.0 mi WNW 11.5 mph 21.9 mph N/A   Scattered Clouds
3:16 PM 69.8 °F - 17.6 °F 14% 29.97 in 10.0 mi WSW 5.8 mph - N/A   Mostly Cloudy
3:35 PM 69.8 °F - 14.0 °F 12% 29.96 in 10.0 mi West 11.5 mph 24.2 mph N/A   Mostly Cloudy
3:56 PM 69.8 °F - 17.6 °F 14% 29.97 in 10.0 mi WNW 6.9 mph - N/A   Mostly Cloudy
4:16 PM 66.2 °F - 24.8 °F 21% 29.96 in 10.0 mi NW 8.1 mph - N/A   Scattered Clouds
4:36 PM 66.2 °F - 23.0 °F 19% 29.96 in 10.0 mi North 13.8 mph 20.7 mph N/A   Mostly Cloudy
4:55 PM 69.8 °F - 24.8 °F 18% 29.96 in 10.0 mi North 10.4 mph - N/A   Scattered Clouds
5:16 PM 69.8 °F - 21.2 °F 16% 29.95 in 10.0 mi NE 6.9 mph - N/A   Clear
5:36 PM 68.0 °F - 23.0 °F 18% 29.95 in 10.0 mi North 13.8 mph 17.3 mph N/A   Scattered Clouds
5:56 PM 62.6 °F - 23.0 °F 22% 29.94 in 10.0 mi North 15.0 mph 19.6 mph N/A   Scattered Clouds
6:16 PM 62.6 °F - 23.0 °F 22% 29.94 in 10.0 mi North 9.2 mph - N/A   Scattered Clouds
6:36 PM 62.6 °F - 21.2 °F 20% 29.94 in 10.0 mi North 8.1 mph - N/A   Clear
6:56 PM 60.8 °F - 17.6 °F 19% 29.94 in 10.0 mi NNW 4.6 mph - N/A   Clear
7:15 PM 60.8 °F - 23.0 °F 23% 29.95 in 10.0 mi Calm Calm - N/A   Clear
7:36 PM 60.8 °F - 24.8 °F 25% 29.95 in 10.0 mi Calm Calm - N/A   Clear
7:56 PM 59.0 °F - 23.0 °F 25% 29.96 in 10.0 mi Calm Calm - N/A   Clear
8:16 PM 59.0 °F - 23.0 °F 25% 29.96 in 10.0 mi Calm Calm - N/A   Clear
8:36 PM 53.6 °F - 26.6 °F 35% 29.97 in 10.0 mi Calm Calm - N/A   Clear
8:56 PM 51.8 °F - 28.4 °F 41% 29.97 in 10.0 mi Calm Calm - N/A   Clear
9:16 PM 50.0 °F - 26.6 °F 40% 29.97 in 10.0 mi SE 3.5 mph - N/A   Clear
9:36 PM 50.0 °F - 26.6 °F 40% 29.98 in 10.0 mi Calm Calm - N/A   Clear
9:56 PM 46.4 °F - 28.4 °F 50% 29.99 in 10.0 mi Calm Calm - N/A   Clear
10:16 PM 42.8 °F - 26.6 °F 53% 29.99 in 10.0 mi Calm Calm - N/A   Clear
10:36 PM 42.8 °F - 26.6 °F 53% 29.99 in 10.0 mi Calm Calm - N/A   Clear
10:55 PM 41.0 °F 37.1 °F 28.4 °F 61% 29.99 in 10.0 mi ESE 5.8 mph - N/A   Clear
11:15 PM 42.8 °F 41.1 °F 28.4 °F 57% 30.00 in 10.0 mi East 3.5 mph - N/A   Clear
11:36 PM 42.8 °F - 28.4 °F 57% 30.00 in 10.0 mi Calm Calm - N/A   Scattered Clouds
11:56 PM 42.8 °F - 26.6 °F 53% 30.01 in 10.0 mi Calm Calm - N/A   Overcast